Regional Weather Roundup
Issued by NWS

Home | Current Version | Previous Version | Graphics & Text | Print | Product List | Glossary On
Versions: 1 2 3 4 5 6 7 8 9 10 11 12 13 14 15 16 17 18 19 20 21 22 23 24 25 26 27 28 29 30 31 32 33 34 35 36 37 38 39 40 41 42 43 44 45 46 47 48 49 50
000
ASUS43 KOAX 241602
RWRNE

WEATHER ROUNDUP FOR NEBRASKA
NATIONAL WEATHER SERVICE OMAHA NE
1100 AM CDT SUN MAY 24 2015

NOTES: SATELLITE DATA IS BEING USED TO AUGMENT CLOUD COVER ABOVE
       12000 FEET.
       "FAIR" INDICATES FEW OR NO CLOUDS BELOW 12,000 FEET WITH NO
       SIGNIFICANT WEATHER AND/OR OBSTRUCTIONS TO VISIBILITY.

  * THESE STATIONS DO NOT REPORT WEATHER SUCH AS RAIN...SNOW OR FOG.

NEZ001>004-019>022-054>056-241700-
NEBRASKA PANHANDLE

CITY           SKY/WX    TMP DP  RH WIND       PRES   REMARKS
SCOTTSBLUFF    PTSUNNY   58  49  72 VRB3      29.89R
ALLIANCE       CLOUDY    56  53  90 NE8       29.88R
CHADRON        CLOUDY    57  50  77 E10       29.89R
SIDNEY         CLOUDY    51  49  92 CALM      29.91S
$$

NEZ057>060-069>072-079>082-241700-
SOUTHWEST NEBRASKA

CITY           SKY/WX    TMP DP  RH WIND       PRES   REMARKS
NORTH PLATTE   CLOUDY    60  55  83 SW5       29.89S
IMPERIAL       PTSUNNY   60  53  77 SE6       29.88S
LEXINGTON      CLOUDY    61  58  90 S3        29.87S
MCCOOK         CLOUDY    64  55  72 CALM      29.87S
$$

NEZ005>010-023>029-035>040-094-241700-
NORTH CENTRAL NEBRASKA

CITY           SKY/WX    TMP DP  RH WIND       PRES   REMARKS
VALENTINE      CLOUDY    58  56  93 E12       29.89F
AINSWORTH      CLOUDY    58  58 100 E9        29.89S FOG
BROKEN BOW     CLOUDY    62  58  86 SE3       29.87S
ORD            CLOUDY    61  58  90 NE3       29.85S
$$

NEZ041-046>049-061>064-073>077-083>087-241700-
SOUTH CENTRAL NEBRASKA

CITY           SKY/WX    TMP DP  RH WIND       PRES   REMARKS
GRAND ISLAND   CLOUDY    63  58  83 CALM      29.85S
HASTINGS       CLOUDY    63  57  81 W6        29.86R
KEARNEY *      CLOUDY    61  55  82 CALM      29.86F
$$

NEZ011>018-030>034-042>045-241700-
NORTHEAST NEBRASKA

CITY           SKY/WX    TMP DP  RH WIND       PRES   REMARKS
NORFOLK        CLOUDY   N/A N/A N/A E6        29.85F FOG
BLAIR          LGT RAIN  61  59  93 SE3       29.84R
COLUMBUS *     CLOUDY    61  55  82 CALM      29.88S
FREMONT        CLOUDY    63  61  93 SE3       29.84F
TEKAMAH        CLOUDY    63  61  93 E6        29.83F
$$

NEZ050>053-065>068-078-088>093-241700-
SOUTHEAST NEBRASKA

CITY           SKY/WX    TMP DP  RH WIND       PRES   REMARKS
LINCOLN        CLOUDY    64  61  90 W3        29.85S
OMAHA EPPLEY   CLOUDY    63  61  93 SE8       29.84S FOG
FALLS CITY     CLOUDY    68  63  84 SW7       29.85R
PLATTSMOUTH    CLOUDY    63  61  94 CALM      29.84S FOG
$$

NEZ044-045-051>053-067-241700-
OMAHA AREA

CITY           SKY/WX    TMP DP  RH WIND       PRES   REMARKS
OMAHA EPPLEY   CLOUDY    63  61  93 SE8       29.84S FOG
BLAIR          LGT RAIN  61  59  93 SE3       29.84R
FREMONT        CLOUDY    63  61  93 SE3       29.84F
OFFUTT AFB     CLOUDY    63  62  95 S7        29.83R
PLATTSMOUTH    CLOUDY    63  61  94 CALM      29.84S FOG
$$



USA.gov is the U.S. government's official web portal to all federal, state and local government web resources and services.